owner,sensor,date,latitude,longitude,vertical_datum,sea_water_temperature,qcFlag 
COMPS,ioos:station:USF.COMPS:C10:1,2014-09-01T04:05:00Z,27.1690,-82.9260,-1.0,30.776,2 
COMPS,ioos:station:USF.COMPS:C10:1,2014-09-01T04:35:00Z,27.1690,-82.9260,-1.0,30.77,2 
COMPS,ioos:station:USF.COMPS:C10:1,2014-09-01T05:05:00Z,27.1690,-82.9260,-1.0,30.748,2 
COMPS,ioos:station:USF.COMPS:C10:1,2014-09-01T05:35:00Z,27.1690,-82.9260,-1.0,30.724,2 
COMPS,ioos:station:USF.COMPS:C10:1,2014-09-01T06:05:00Z,27.1690,-82.9260,-1.0,30.713,2 
COMPS,ioos:station:USF.COMPS:C10:1,2014-09-01T06:35:00Z,27.1690,-82.9260,-1.0,30.698,2 
COMPS,ioos:station:USF.COMPS:C10:1,2014-09-01T07:05:00Z,27.1690,-82.9260,-1.0,30.693,2 
COMPS,ioos:station:USF.COMPS:C10:1,2014-09-01T07:35:00Z,27.1690,-82.9260,-1.0,30.674,2 
COMPS,ioos:station:USF.COMPS:C10:1,2014-09-01T08:05:00Z,27.1690,-82.9260,-1.0,30.669,2 
COMPS,ioos:station:USF.COMPS:C10:1,2014-09-01T08:35:00Z,27.1690,-82.9260,-1.0,30.66,2 
COMPS,ioos:station:USF.COMPS:C10:1,2014-09-01T09:05:00Z,27.1690,-82.9260,-1.0,30.65,2 
COMPS,ioos:station:USF.COMPS:C10:1,2014-09-01T09:35:00Z,27.1690,-82.9260,-1.0,30.645,2 
COMPS,ioos:station:USF.COMPS:C10:1,2014-09-01T10:05:00Z,27.1690,-82.9260,-1.0,30.638,2 
COMPS,ioos:station:USF.COMPS:C10:1,2014-09-01T10:35:00Z,27.1690,-82.9260,-1.0,30.617,2 
COMPS,ioos:station:USF.COMPS:C10:1,2014-09-01T11:05:00Z,27.1690,-82.9260,-1.0,30.615,2 
COMPS,ioos:station:USF.COMPS:C10:1,2014-09-01T11:35:00Z,27.1690,-82.9260,-1.0,30.61,2 
COMPS,ioos:station:USF.COMPS:C10:1,2014-09-01T12:05:00Z,27.1690,-82.9260,-1.0,30.608,2 
COMPS,ioos:station:USF.COMPS:C10:1,2014-09-01T12:35:00Z,27.1690,-82.9260,-1.0,30.615,2 
COMPS,ioos:station:USF.COMPS:C10:1,2014-09-01T13:05:00Z,27.1690,-82.9260,-1.0,30.622,2 
COMPS,ioos:station:USF.COMPS:C10:1,2014-09-01T13:35:00Z,27.1690,-82.9260,-1.0,30.627,2 
COMPS,ioos:station:USF.COMPS:C10:1,2014-09-01T14:05:00Z,27.1690,-82.9260,-1.0,30.632,2 
COMPS,ioos:station:USF.COMPS:C10:1,2014-09-01T14:35:00Z,27.1690,-82.9260,-1.0,30.639,2 
COMPS,ioos:station:USF.COMPS:C10:1,2014-09-01T15:05:00Z,27.1690,-82.9260,-1.0,30.659,2 
COMPS,ioos:station:USF.COMPS:C10:1,2014-09-01T15:35:00Z,27.1690,-82.9260,-1.0,30.672,2 
COMPS,ioos:station:USF.COMPS:C10:1,2014-09-01T16:05:00Z,27.1690,-82.9260,-1.0,30.701,2 
COMPS,ioos:station:USF.COMPS:C10:1,2014-09-01T16:35:00Z,27.1690,-82.9260,-1.0,30.761,2 
COMPS,ioos:station:USF.COMPS:C10:1,2014-09-01T17:05:00Z,27.1690,-82.9260,-1.0,30.801,2 
COMPS,ioos:station:USF.COMPS:C10:1,2014-09-01T17:35:00Z,27.1690,-82.9260,-1.0,30.855,2 
COMPS,ioos:station:USF.COMPS:C10:1,2014-09-01T18:05:00Z,27.1690,-82.9260,-1.0,30.902,2 
COMPS,ioos:station:USF.COMPS:C10:1,2014-09-01T18:35:00Z,27.1690,-82.9260,-1.0,31.029,2 
COMPS,ioos:station:USF.COMPS:C10:1,2014-09-01T19:05:00Z,27.1690,-82.9260,-1.0,31.093,2 
COMPS,ioos:station:USF.COMPS:C10:1,2014-09-01T19:35:00Z,27.1690,-82.9260,-1.0,31.161,2 
COMPS,ioos:station:USF.COMPS:C10:1,2014-09-01T20:05:00Z,27.1690,-82.9260,-1.0,31.21,2 
COMPS,ioos:station:USF.COMPS:C10:1,2014-09-01T20:35:00Z,27.1690,-82.9260,-1.0,31.282,2 
COMPS,ioos:station:USF.COMPS:C10:1,2014-09-01T21:05:00Z,27.1690,-82.9260,-1.0,31.347,2 
COMPS,ioos:station:USF.COMPS:C10:1,2014-09-01T21:35:00Z,27.1690,-82.9260,-1.0,31.36,2 
COMPS,ioos:station:USF.COMPS:C10:1,2014-09-01T22:05:00Z,27.1690,-82.9260,-1.0,31.332,2 
COMPS,ioos:station:USF.COMPS:C10:1,2014-09-01T22:35:00Z,27.1690,-82.9260,-1.0,31.242,2 
COMPS,ioos:station:USF.COMPS:C10:1,2014-09-01T23:05:00Z,27.1690,-82.9260,-1.0,31.175,2 
COMPS,ioos:station:USF.COMPS:C10:1,2014-09-01T23:35:00Z,27.1690,-82.9260,-1.0,31.197,2 
COMPS,ioos:station:USF.COMPS:C10:1,2014-09-02T00:05:00Z,27.1690,-82.9260,-1.0,31.163,2 
COMPS,ioos:station:USF.COMPS:C10:1,2014-09-02T00:35:00Z,27.1690,-82.9260,-1.0,31.146,2 
COMPS,ioos:station:USF.COMPS:C10:1,2014-09-02T01:05:00Z,27.1690,-82.9260,-1.0,31.086,2 
COMPS,ioos:station:USF.COMPS:C10:1,2014-09-02T01:35:00Z,27.1690,-82.9260,-1.0,31.022,2 
COMPS,ioos:station:USF.COMPS:C10:1,2014-09-02T02:05:00Z,27.1690,-82.9260,-1.0,30.99,2 
COMPS,ioos:station:USF.COMPS:C10:1,2014-09-02T02:35:00Z,27.1690,-82.9260,-1.0,30.967,2 
COMPS,ioos:station:USF.COMPS:C10:1,2014-09-02T03:05:00Z,27.1690,-82.9260,-1.0,30.949,2 
COMPS,ioos:station:USF.COMPS:C10:1,2014-09-02T03:35:00Z,27.1690,-82.9260,-1.0,30.945,2 
COMPS,ioos:station:USF.COMPS:C10:1,2014-09-03T22:05:00Z,27.1690,-82.9260,-1.0,31.085,2 
COMPS,ioos:station:USF.COMPS:C10:1,2014-09-03T22:35:00Z,27.1690,-82.9260,-1.0,31.059,2 
COMPS,ioos:station:USF.COMPS:C10:1,2014-09-03T23:05:00Z,27.1690,-82.9260,-1.0,31.022,2 
COMPS,ioos:station:USF.COMPS:C10:1,2014-09-03T23:35:00Z,27.1690,-82.9260,-1.0,31.002,2 
COMPS,ioos:station:USF.COMPS:C10:1,2014-09-04T00:05:00Z,27.1690,-82.9260,-1.0,30.969,2 
COMPS,ioos:station:USF.COMPS:C10:1,2014-09-04T00:35:00Z,27.1690,-82.9260,-1.0,30.921,2 
COMPS,ioos:station:USF.COMPS:C10:1,2014-09-04T01:05:00Z,27.1690,-82.9260,-1.0,30.916,2 
COMPS,ioos:station:USF.COMPS:C10:1,2014-09-04T01:35:00Z,27.1690,-82.9260,-1.0,30.898,2 
COMPS,ioos:station:USF.COMPS:C10:1,2014-09-04T02:05:00Z,27.1690,-82.9260,-1.0,30.903,2 
COMPS,ioos:station:USF.COMPS:C10:1,2014-09-04T02:35:00Z,27.1690,-82.9260,-1.0,30.887,2 
COMPS,ioos:station:USF.COMPS:C10:1,2014-09-04T03:05:00Z,27.1690,-82.9260,-1.0,30.875,2 
COMPS,ioos:station:USF.COMPS:C10:1,2014-09-04T03:35:00Z,27.1690,-82.9260,-1.0,30.857,2 
COMPS,ioos:station:USF.COMPS:C10:1,2014-09-04T04:05:00Z,27.1690,-82.9260,-1.0,30.837,2 
COMPS,ioos:station:USF.COMPS:C10:1,2014-09-04T04:35:00Z,27.1690,-82.9260,-1.0,30.838,2 
COMPS,ioos:station:USF.COMPS:C10:1,2014-09-04T05:05:00Z,27.1690,-82.9260,-1.0,30.831,2 
COMPS,ioos:station:USF.COMPS:C10:1,2014-09-04T05:35:00Z,27.1690,-82.9260,-1.0,30.81,2 
COMPS,ioos:station:USF.COMPS:C10:1,2014-09-04T06:05:00Z,27.1690,-82.9260,-1.0,30.81,2 
COMPS,ioos:station:USF.COMPS:C10:1,2014-09-04T06:35:00Z,27.1690,-82.9260,-1.0,30.794,2 
COMPS,ioos:station:USF.COMPS:C10:1,2014-09-04T07:05:00Z,27.1690,-82.9260,-1.0,30.766,2 
COMPS,ioos:station:USF.COMPS:C10:1,2014-09-04T07:35:00Z,27.1690,-82.9260,-1.0,30.759,2 
COMPS,ioos:station:USF.COMPS:C10:1,2014-09-04T08:05:00Z,27.1690,-82.9260,-1.0,30.769,2 
COMPS,ioos:station:USF.COMPS:C10:1,2014-09-04T08:35:00Z,27.1690,-82.9260,-1.0,30.756,2 
COMPS,ioos:station:USF.COMPS:C10:1,2014-09-04T09:05:00Z,27.1690,-82.9260,-1.0,30.761,2 
COMPS,ioos:station:USF.COMPS:C10:1,2014-09-04T09:35:00Z,27.1690,-82.9260,-1.0,30.726,2 
COMPS,ioos:station:USF.COMPS:C10:1,2014-09-04T10:05:00Z,27.1690,-82.9260,-1.0,30.751,2 
COMPS,ioos:station:USF.COMPS:C10:1,2014-09-04T10:35:00Z,27.1690,-82.9260,-1.0,30.74,2 
COMPS,ioos:station:USF.COMPS:C10:1,2014-09-04T11:05:00Z,27.1690,-82.9260,-1.0,30.735,2 
COMPS,ioos:station:USF.COMPS:C10:1,2014-09-04T11:35:00Z,27.1690,-82.9260,-1.0,30.726,2 
COMPS,ioos:station:USF.COMPS:C10:1,2014-09-04T12:05:00Z,27.1690,-82.9260,-1.0,30.726,2 
COMPS,ioos:station:USF.COMPS:C10:1,2014-09-04T12:35:00Z,27.1690,-82.9260,-1.0,30.724,2 
COMPS,ioos:station:USF.COMPS:C10:1,2014-09-04T13:05:00Z,27.1690,-82.9260,-1.0,30.713,2 
COMPS,ioos:station:USF.COMPS:C10:1,2014-09-04T13:35:00Z,27.1690,-82.9260,-1.0,30.727,2 
COMPS,ioos:station:USF.COMPS:C10:1,2014-09-04T14:05:00Z,27.1690,-82.9260,-1.0,30.731,2 
COMPS,ioos:station:USF.COMPS:C10:1,2014-09-04T14:35:00Z,27.1690,-82.9260,-1.0,30.738,2 
COMPS,ioos:station:USF.COMPS:C10:1,2014-09-04T15:05:00Z,27.1690,-82.9260,-1.0,30.759,2 
COMPS,ioos:station:USF.COMPS:C10:1,2014-09-04T15:35:00Z,27.1690,-82.9260,-1.0,30.801,2 
COMPS,ioos:station:USF.COMPS:C10:1,2014-09-04T16:05:00Z,27.1690,-82.9260,-1.0,30.771,2 
COMPS,ioos:station:USF.COMPS:C10:1,2014-09-04T16:35:00Z,27.1690,-82.9260,-1.0,30.871,2 
COMPS,ioos:station:USF.COMPS:C10:1,2014-09-04T17:05:00Z,27.1690,-82.9260,-1.0,30.891,2 
COMPS,ioos:station:USF.COMPS:C10:1,2014-09-04T17:35:00Z,27.1690,-82.9260,-1.0,30.948,2 
COMPS,ioos:station:USF.COMPS:C10:1,2014-09-04T18:05:00Z,27.1690,-82.9260,-1.0,31.03,2 
COMPS,ioos:station:USF.COMPS:C10:1,2014-09-04T18:35:00Z,27.1690,-82.9260,-1.0,31.06,2 
COMPS,ioos:station:USF.COMPS:C10:1,2014-09-04T19:05:00Z,27.1690,-82.9260,-1.0,31.038,2 
COMPS,ioos:station:USF.COMPS:C10:1,2014-09-04T19:35:00Z,27.1690,-82.9260,-1.0,31.025,2 
COMPS,ioos:station:USF.COMPS:C10:1,2014-09-04T20:05:00Z,27.1690,-82.9260,-1.0,31.042,2 
COMPS,ioos:station:USF.COMPS:C10:1,2014-09-04T20:35:00Z,27.1690,-82.9260,-1.0,31.061,2 
COMPS,ioos:station:USF.COMPS:C10:1,2014-09-04T21:05:00Z,27.1690,-82.9260,-1.0,31.062,2 
COMPS,ioos:station:USF.COMPS:C10:1,2014-09-04T21:35:00Z,27.1690,-82.9260,-1.0,31.101,2 
COMPS,ioos:station:USF.COMPS:C10:1,2014-09-04T23:05:00Z,27.1690,-82.9260,-1.0,31.064,2 
COMPS,ioos:station:USF.COMPS:C10:1,2014-09-04T23:35:00Z,27.1690,-82.9260,-1.0,31.037,2 
COMPS,ioos:station:USF.COMPS:C10:1,2014-09-05T00:05:00Z,27.1690,-82.9260,-1.0,31.016,2 
COMPS,ioos:station:USF.COMPS:C10:1,2014-09-05T00:35:00Z,27.1690,-82.9260,-1.0,30.988,2 
COMPS,ioos:station:USF.COMPS:C10:1,2014-09-05T01:05:00Z,27.1690,-82.9260,-1.0,30.978,2 
COMPS,ioos:station:USF.COMPS:C10:1,2014-09-05T01:35:00Z,27.1690,-82.9260,-1.0,30.952,2 
COMPS,ioos:station:USF.COMPS:C10:1,2014-09-05T02:05:00Z,27.1690,-82.9260,-1.0,30.945,2 
COMPS,ioos:station:USF.COMPS:C10:1,2014-09-05T02:35:00Z,27.1690,-82.9260,-1.0,30.932,2 
COMPS,ioos:station:USF.COMPS:C10:1,2014-09-05T03:05:00Z,27.1690,-82.9260,-1.0,30.92,2 
COMPS,ioos:station:USF.COMPS:C10:1,2014-09-05T03:35:00Z,27.1690,-82.9260,-1.0,30.901,2 
COMPS,ioos:station:USF.COMPS:C10:1,2014-09-05T04:05:00Z,27.1690,-82.9260,-1.0,30.907,2 
COMPS,ioos:station:USF.COMPS:C10:1,2014-09-05T04:35:00Z,27.1690,-82.9260,-1.0,30.895,2 
COMPS,ioos:station:USF.COMPS:C10:1,2014-09-05T05:05:00Z,27.1690,-82.9260,-1.0,30.882,2 
COMPS,ioos:station:USF.COMPS:C10:1,2014-09-05T05:35:00Z,27.1690,-82.9260,-1.0,30.872,2 
COMPS,ioos:station:USF.COMPS:C10:1,2014-09-05T06:05:00Z,27.1690,-82.9260,-1.0,30.86,2 
COMPS,ioos:station:USF.COMPS:C10:1,2014-09-05T06:35:00Z,27.1690,-82.9260,-1.0,30.823,2 
COMPS,ioos:station:USF.COMPS:C10:1,2014-09-05T07:05:00Z,27.1690,-82.9260,-1.0,30.803,2 
COMPS,ioos:station:USF.COMPS:C10:1,2014-09-05T07:35:00Z,27.1690,-82.9260,-1.0,30.814,2 
COMPS,ioos:station:USF.COMPS:C10:1,2014-09-05T08:05:00Z,27.1690,-82.9260,-1.0,30.8,2 
COMPS,ioos:station:USF.COMPS:C10:1,2014-09-05T08:35:00Z,27.1690,-82.9260,-1.0,30.793,2 
COMPS,ioos:station:USF.COMPS:C10:1,2014-09-05T09:05:00Z,27.1690,-82.9260,-1.0,30.788,2 
COMPS,ioos:station:USF.COMPS:C10:1,2014-09-05T09:35:00Z,27.1690,-82.9260,-1.0,30.791,2 
COMPS,ioos:station:USF.COMPS:C10:1,2014-09-05T10:05:00Z,27.1690,-82.9260,-1.0,30.785,2 
COMPS,ioos:station:USF.COMPS:C10:1,2014-09-05T10:35:00Z,27.1690,-82.9260,-1.0,30.768,2 
COMPS,ioos:station:USF.COMPS:C10:1,2014-09-05T11:05:00Z,27.1690,-82.9260,-1.0,30.763,2 
COMPS,ioos:station:USF.COMPS:C10:1,2014-09-05T11:35:00Z,27.1690,-82.9260,-1.0,30.772,2 
COMPS,ioos:station:USF.COMPS:C10:1,2014-09-05T12:05:00Z,27.1690,-82.9260,-1.0,30.762,2 
COMPS,ioos:station:USF.COMPS:C10:1,2014-09-05T12:35:00Z,27.1690,-82.9260,-1.0,30.763,2 
COMPS,ioos:station:USF.COMPS:C10:1,2014-09-05T13:05:00Z,27.1690,-82.9260,-1.0,30.755,2 
COMPS,ioos:station:USF.COMPS:C10:1,2014-09-05T13:35:00Z,27.1690,-82.9260,-1.0,30.757,2 
COMPS,ioos:station:USF.COMPS:C10:1,2014-09-05T14:05:00Z,27.1690,-82.9260,-1.0,30.765,2 
COMPS,ioos:station:USF.COMPS:C10:1,2014-09-05T14:35:00Z,27.1690,-82.9260,-1.0,30.772,2 
COMPS,ioos:station:USF.COMPS:C10:1,2014-09-05T15:05:00Z,27.1690,-82.9260,-1.0,30.764,2 
COMPS,ioos:station:USF.COMPS:C10:1,2014-09-05T15:35:00Z,27.1690,-82.9260,-1.0,30.761,2 
COMPS,ioos:station:USF.COMPS:C10:1,2014-09-05T16:05:00Z,27.1690,-82.9260,-1.0,30.748,2 
COMPS,ioos:station:USF.COMPS:C10:1,2014-09-05T16:35:00Z,27.1690,-82.9260,-1.0,30.739,2 
COMPS,ioos:station:USF.COMPS:C10:1,2014-09-05T17:05:00Z,27.1690,-82.9260,-1.0,30.745,2 
COMPS,ioos:station:USF.COMPS:C10:1,2014-09-05T17:35:00Z,27.1690,-82.9260,-1.0,30.757,2 
COMPS,ioos:station:USF.COMPS:C10:1,2014-09-05T18:05:00Z,27.1690,-82.9260,-1.0,30.827,2 
COMPS,ioos:station:USF.COMPS:C10:1,2014-09-05T18:35:00Z,27.1690,-82.9260,-1.0,30.916,2 
COMPS,ioos:station:USF.COMPS:C10:1,2014-09-05T19:05:00Z,27.1690,-82.9260,-1.0,30.997,2 
COMPS,ioos:station:USF.COMPS:C10:1,2014-09-05T19:35:00Z,27.1690,-82.9260,-1.0,31.034,2 
COMPS,ioos:station:USF.COMPS:C10:1,2014-09-05T20:05:00Z,27.1690,-82.9260,-1.0,30.961,2 
COMPS,ioos:station:USF.COMPS:C10:1,2014-09-05T20:35:00Z,27.1690,-82.9260,-1.0,31.194,2 
COMPS,ioos:station:USF.COMPS:C10:1,2014-09-05T21:05:00Z,27.1690,-82.9260,-1.0,31.15,2 
COMPS,ioos:station:USF.COMPS:C10:1,2014-09-05T21:35:00Z,27.1690,-82.9260,-1.0,31.346,2 
COMPS,ioos:station:USF.COMPS:C10:1,2014-09-05T22:05:00Z,27.1690,-82.9260,-1.0,31.363,2 
COMPS,ioos:station:USF.COMPS:C10:1,2014-09-05T22:35:00Z,27.1690,-82.9260,-1.0,31.352,2 
COMPS,ioos:station:USF.COMPS:C10:1,2014-09-10T11:05:00Z,27.1690,-82.9260,-1.0,30.646,2 
COMPS,ioos:station:USF.COMPS:C10:1,2014-09-10T11:35:00Z,27.1690,-82.9260,-1.0,30.656,2 
COMPS,ioos:station:USF.COMPS:C10:1,2014-09-10T12:05:00Z,27.1690,-82.9260,-1.0,30.619,2 
COMPS,ioos:station:USF.COMPS:C10:1,2014-09-10T12:35:00Z,27.1690,-82.9260,-1.0,30.644,2 
COMPS,ioos:station:USF.COMPS:C10:1,2014-09-10T13:05:00Z,27.1690,-82.9260,-1.0,30.631,2 
COMPS,ioos:station:USF.COMPS:C10:1,2014-09-10T13:35:00Z,27.1690,-82.9260,-1.0,30.62,2 
COMPS,ioos:station:USF.COMPS:C10:1,2014-09-10T14:05:00Z,27.1690,-82.9260,-1.0,30.624,2 
COMPS,ioos:station:USF.COMPS:C10:1,2014-09-10T14:35:00Z,27.1690,-82.9260,-1.0,30.621,2 
COMPS,ioos:station:USF.COMPS:C10:1,2014-09-10T15:05:00Z,27.1690,-82.9260,-1.0,30.63,2 
COMPS,ioos:station:USF.COMPS:C10:1,2014-09-10T15:35:00Z,27.1690,-82.9260,-1.0,30.637,2 
COMPS,ioos:station:USF.COMPS:C10:1,2014-09-10T16:05:00Z,27.1690,-82.9260,-1.0,30.654,2 
COMPS,ioos:station:USF.COMPS:C10:1,2014-09-10T16:35:00Z,27.1690,-82.9260,-1.0,30.673,2 
COMPS,ioos:station:USF.COMPS:C10:1,2014-09-10T17:05:00Z,27.1690,-82.9260,-1.0,30.688,2 
COMPS,ioos:station:USF.COMPS:C10:1,2014-09-10T17:35:00Z,27.1690,-82.9260,-1.0,30.72,2 
COMPS,ioos:station:USF.COMPS:C10:1,2014-09-10T18:05:00Z,27.1690,-82.9260,-1.0,30.739,2 
COMPS,ioos:station:USF.COMPS:C10:1,2014-09-10T18:35:00Z,27.1690,-82.9260,-1.0,30.78,2 
COMPS,ioos:station:USF.COMPS:C10:1,2014-09-10T19:05:00Z,27.1690,-82.9260,-1.0,30.833,2 
COMPS,ioos:station:USF.COMPS:C10:1,2014-09-10T19:35:00Z,27.1690,-82.9260,-1.0,30.878,2 
COMPS,ioos:station:USF.COMPS:C10:1,2014-09-10T20:05:00Z,27.1690,-82.9260,-1.0,30.931,2 
COMPS,ioos:station:USF.COMPS:C10:1,2014-09-10T20:35:00Z,27.1690,-82.9260,-1.0,31.033,2 
COMPS,ioos:station:USF.COMPS:C10:1,2014-09-10T21:05:00Z,27.1690,-82.9260,-1.0,31.113,2 
COMPS,ioos:station:USF.COMPS:C10:1,2014-09-10T21:35:00Z,27.1690,-82.9260,-1.0,31.227,2 
COMPS,ioos:station:USF.COMPS:C10:1,2014-09-10T22:05:00Z,27.1690,-82.9260,-1.0,31.229,2 
COMPS,ioos:station:USF.COMPS:C10:1,2014-09-10T22:35:00Z,27.1690,-82.9260,-1.0,31.142,2 
COMPS,ioos:station:USF.COMPS:C10:1,2014-09-10T23:05:00Z,27.1690,-82.9260,-1.0,30.965,2 
COMPS,ioos:station:USF.COMPS:C10:1,2014-09-10T23:35:00Z,27.1690,-82.9260,-1.0,30.891,2 
COMPS,ioos:station:USF.COMPS:C10:1,2014-09-11T00:05:00Z,27.1690,-82.9260,-1.0,30.846,2 
COMPS,ioos:station:USF.COMPS:C10:1,2014-09-11T00:35:00Z,27.1690,-82.9260,-1.0,30.796,2 
COMPS,ioos:station:USF.COMPS:C10:1,2014-09-11T01:05:00Z,27.1690,-82.9260,-1.0,30.772,2 
COMPS,ioos:station:USF.COMPS:C10:1,2014-09-11T01:35:00Z,27.1690,-82.9260,-1.0,30.745,2 
COMPS,ioos:station:USF.COMPS:C10:1,2014-09-11T02:05:00Z,27.1690,-82.9260,-1.0,30.716,2 
COMPS,ioos:station:USF.COMPS:C10:1,2014-09-11T02:35:00Z,27.1690,-82.9260,-1.0,30.721,2 
COMPS,ioos:station:USF.COMPS:C10:1,2014-09-11T03:05:00Z,27.1690,-82.9260,-1.0,30.706,2 
COMPS,ioos:station:USF.COMPS:C10:1,2014-09-11T03:35:00Z,27.1690,-82.9260,-1.0,30.705,2 
COMPS,ioos:station:USF.COMPS:C10:1,2014-09-11T04:05:00Z,27.1690,-82.9260,-1.0,30.685,2 
COMPS,ioos:station:USF.COMPS:C10:1,2014-09-11T04:35:00Z,27.1690,-82.9260,-1.0,30.673,2 
COMPS,ioos:station:USF.COMPS:C10:1,2014-09-11T05:05:00Z,27.1690,-82.9260,-1.0,30.663,2 
COMPS,ioos:station:USF.COMPS:C10:1,2014-09-11T05:35:00Z,27.1690,-82.9260,-1.0,30.676,2 
COMPS,ioos:station:USF.COMPS:C10:1,2014-09-11T06:05:00Z,27.1690,-82.9260,-1.0,30.654,2 
COMPS,ioos:station:USF.COMPS:C10:1,2014-09-11T06:35:00Z,27.1690,-82.9260,-1.0,30.667,2 
COMPS,ioos:station:USF.COMPS:C10:1,2014-09-11T07:05:00Z,27.1690,-82.9260,-1.0,30.649,2 
COMPS,ioos:station:USF.COMPS:C10:1,2014-09-11T07:35:00Z,27.1690,-82.9260,-1.0,30.644,2 
COMPS,ioos:station:USF.COMPS:C10:1,2014-09-11T08:05:00Z,27.1690,-82.9260,-1.0,30.653,2 
COMPS,ioos:station:USF.COMPS:C10:1,2014-09-11T08:35:00Z,27.1690,-82.9260,-1.0,30.632,2 
COMPS,ioos:station:USF.COMPS:C10:1,2014-09-11T09:05:00Z,27.1690,-82.9260,-1.0,30.641,2 
COMPS,ioos:station:USF.COMPS:C10:1,2014-09-11T09:35:00Z,27.1690,-82.9260,-1.0,30.609,2 
COMPS,ioos:station:USF.COMPS:C10:1,2014-09-11T10:05:00Z,27.1690,-82.9260,-1.0,30.617,2 
COMPS,ioos:station:USF.COMPS:C10:1,2014-09-11T10:35:00Z,27.1690,-82.9260,-1.0,30.611,2 
COMPS,ioos:station:USF.COMPS:C10:1,2014-09-13T03:05:00Z,27.1690,-82.9260,-1.0,30.646,2 
COMPS,ioos:station:USF.COMPS:C10:1,2014-09-13T03:35:00Z,27.1690,-82.9260,-1.0,30.639,2 
COMPS,ioos:station:USF.COMPS:C10:1,2014-09-13T04:05:00Z,27.1690,-82.9260,-1.0,30.647,2 
COMPS,ioos:station:USF.COMPS:C10:1,2014-09-13T04:35:00Z,27.1690,-82.9260,-1.0,30.638,2 
COMPS,ioos:station:USF.COMPS:C10:1,2014-09-13T05:05:00Z,27.1690,-82.9260,-1.0,30.62,2 
COMPS,ioos:station:USF.COMPS:C10:1,2014-09-13T05:35:00Z,27.1690,-82.9260,-1.0,30.618,2 
COMPS,ioos:station:USF.COMPS:C10:1,2014-09-13T06:05:00Z,27.1690,-82.9260,-1.0,30.618,2 
COMPS,ioos:station:USF.COMPS:C10:1,2014-09-13T06:35:00Z,27.1690,-82.9260,-1.0,30.603,2 
COMPS,ioos:station:USF.COMPS:C10:1,2014-09-13T07:05:00Z,27.1690,-82.9260,-1.0,30.596,2 
COMPS,ioos:station:USF.COMPS:C10:1,2014-09-13T07:35:00Z,27.1690,-82.9260,-1.0,30.597,2 
COMPS,ioos:station:USF.COMPS:C10:1,2014-09-13T08:05:00Z,27.1690,-82.9260,-1.0,30.589,2 
COMPS,ioos:station:USF.COMPS:C10:1,2014-09-13T08:35:00Z,27.1690,-82.9260,-1.0,30.576,2 
COMPS,ioos:station:USF.COMPS:C10:1,2014-09-13T09:05:00Z,27.1690,-82.9260,-1.0,30.57,2 
COMPS,ioos:station:USF.COMPS:C10:1,2014-09-13T09:35:00Z,27.1690,-82.9260,-1.0,30.568,2 
COMPS,ioos:station:USF.COMPS:C10:1,2014-09-13T10:05:00Z,27.1690,-82.9260,-1.0,30.57,2 
COMPS,ioos:station:USF.COMPS:C10:1,2014-09-13T10:35:00Z,27.1690,-82.9260,-1.0,30.558,2 
COMPS,ioos:station:USF.COMPS:C10:1,2014-09-13T11:05:00Z,27.1690,-82.9260,-1.0,30.535,2 
COMPS,ioos:station:USF.COMPS:C10:1,2014-09-13T11:35:00Z,27.1690,-82.9260,-1.0,30.542,2 
COMPS,ioos:station:USF.COMPS:C10:1,2014-09-13T13:05:00Z,27.1690,-82.9260,-1.0,30.51,2 
COMPS,ioos:station:USF.COMPS:C10:1,2014-09-13T13:35:00Z,27.1690,-82.9260,-1.0,30.512,2 
COMPS,ioos:station:USF.COMPS:C10:1,2014-09-13T14:05:00Z,27.1690,-82.9260,-1.0,30.528,2 
COMPS,ioos:station:USF.COMPS:C10:1,2014-09-13T14:35:00Z,27.1690,-82.9260,-1.0,30.53,2 
COMPS,ioos:station:USF.COMPS:C10:1,2014-09-13T15:05:00Z,27.1690,-82.9260,-1.0,30.543,2 
COMPS,ioos:station:USF.COMPS:C10:1,2014-09-13T15:35:00Z,27.1690,-82.9260,-1.0,30.562,2 
COMPS,ioos:station:USF.COMPS:C10:1,2014-09-13T16:05:00Z,27.1690,-82.9260,-1.0,30.583,2 
COMPS,ioos:station:USF.COMPS:C10:1,2014-09-13T16:35:00Z,27.1690,-82.9260,-1.0,30.59,2 
COMPS,ioos:station:USF.COMPS:C10:1,2014-09-13T17:05:00Z,27.1690,-82.9260,-1.0,30.61,2 
COMPS,ioos:station:USF.COMPS:C10:1,2014-09-13T17:35:00Z,27.1690,-82.9260,-1.0,30.633,2 
COMPS,ioos:station:USF.COMPS:C10:1,2014-09-13T18:05:00Z,27.1690,-82.9260,-1.0,30.641,2 
COMPS,ioos:station:USF.COMPS:C10:1,2014-09-13T18:35:00Z,27.1690,-82.9260,-1.0,30.672,2 
COMPS,ioos:station:USF.COMPS:C10:1,2014-09-13T19:05:00Z,27.1690,-82.9260,-1.0,30.687,2 
COMPS,ioos:station:USF.COMPS:C10:1,2014-09-13T19:35:00Z,27.1690,-82.9260,-1.0,30.69,2 
COMPS,ioos:station:USF.COMPS:C10:1,2014-09-13T20:05:00Z,27.1690,-82.9260,-1.0,30.68,2 
COMPS,ioos:station:USF.COMPS:C10:1,2014-09-13T20:35:00Z,27.1690,-82.9260,-1.0,30.686,2 
COMPS,ioos:station:USF.COMPS:C10:1,2014-09-13T21:05:00Z,27.1690,-82.9260,-1.0,30.689,2 
COMPS,ioos:station:USF.COMPS:C10:1,2014-09-13T21:35:00Z,27.1690,-82.9260,-1.0,30.668,2 
COMPS,ioos:station:USF.COMPS:C10:1,2014-09-13T22:05:00Z,27.1690,-82.9260,-1.0,30.654,2 
COMPS,ioos:station:USF.COMPS:C10:1,2014-09-13T22:35:00Z,27.1690,-82.9260,-1.0,30.653,2 
COMPS,ioos:station:USF.COMPS:C10:1,2014-09-13T23:05:00Z,27.1690,-82.9260,-1.0,30.653,2 
COMPS,ioos:station:USF.COMPS:C10:1,2014-09-13T23:35:00Z,27.1690,-82.9260,-1.0,30.645,2 
COMPS,ioos:station:USF.COMPS:C10:1,2014-09-14T00:05:00Z,27.1690,-82.9260,-1.0,30.607,2 
COMPS,ioos:station:USF.COMPS:C10:1,2014-09-14T00:35:00Z,27.1690,-82.9260,-1.0,30.604,2 
COMPS,ioos:station:USF.COMPS:C10:1,2014-09-14T01:05:00Z,27.1690,-82.9260,-1.0,30.604,2 
COMPS,ioos:station:USF.COMPS:C10:1,2014-09-14T01:35:00Z,27.1690,-82.9260,-1.0,30.566,2 
COMPS,ioos:station:USF.COMPS:C10:1,2014-09-14T02:05:00Z,27.1690,-82.9260,-1.0,30.564,2 
COMPS,ioos:station:USF.COMPS:C10:1,2014-09-14T02:35:00Z,27.1690,-82.9260,-1.0,30.555,2 
COMPS,ioos:station:USF.COMPS:C10:1,2014-09-14T03:05:00Z,27.1690,-82.9260,-1.0,30.554,2 
COMPS,ioos:station:USF.COMPS:C10:1,2014-09-14T03:35:00Z,27.1690,-82.9260,-1.0,30.535,2 
COMPS,ioos:station:USF.COMPS:C10:1,2014-09-14T04:05:00Z,27.1690,-82.9260,-1.0,30.523,2 
COMPS,ioos:station:USF.COMPS:C10:1,2014-09-14T04:35:00Z,27.1690,-82.9260,-1.0,30.517,2 
COMPS,ioos:station:USF.COMPS:C10:1,2014-09-14T05:05:00Z,27.1690,-82.9260,-1.0,30.51,2 
COMPS,ioos:station:USF.COMPS:C10:1,2014-09-14T05:35:00Z,27.1690,-82.9260,-1.0,30.495,2 
COMPS,ioos:station:USF.COMPS:C10:1,2014-09-14T06:05:00Z,27.1690,-82.9260,-1.0,30.494,2 
COMPS,ioos:station:USF.COMPS:C10:1,2014-09-14T06:35:00Z,27.1690,-82.9260,-1.0,30.475,2 
COMPS,ioos:station:USF.COMPS:C10:1,2014-09-14T07:05:00Z,27.1690,-82.9260,-1.0,30.457,2 
COMPS,ioos:station:USF.COMPS:C10:1,2014-09-14T07:35:00Z,27.1690,-82.9260,-1.0,30.46,2 
COMPS,ioos:station:USF.COMPS:C10:1,2014-09-14T09:05:00Z,27.1690,-82.9260,-1.0,30.438,2 
COMPS,ioos:station:USF.COMPS:C10:1,2014-09-14T09:35:00Z,27.1690,-82.9260,-1.0,30.416,2 
COMPS,ioos:station:USF.COMPS:C10:1,2014-09-14T10:05:00Z,27.1690,-82.9260,-1.0,30.429,2 
COMPS,ioos:station:USF.COMPS:C10:1,2014-09-14T10:35:00Z,27.1690,-82.9260,-1.0,30.419,2 
COMPS,ioos:station:USF.COMPS:C10:1,2014-09-14T11:05:00Z,27.1690,-82.9260,-1.0,30.448,2 
COMPS,ioos:station:USF.COMPS:C10:1,2014-09-14T11:35:00Z,27.1690,-82.9260,-1.0,30.452,2 
COMPS,ioos:station:USF.COMPS:C10:1,2014-09-14T12:05:00Z,27.1690,-82.9260,-1.0,30.442,2 
COMPS,ioos:station:USF.COMPS:C10:1,2014-09-14T12:35:00Z,27.1690,-82.9260,-1.0,30.443,2 
COMPS,ioos:station:USF.COMPS:C10:1,2014-09-14T13:05:00Z,27.1690,-82.9260,-1.0,30.439,2 
COMPS,ioos:station:USF.COMPS:C10:1,2014-09-14T13:35:00Z,27.1690,-82.9260,-1.0,30.457,2 
COMPS,ioos:station:USF.COMPS:C10:1,2014-09-14T15:05:00Z,27.1690,-82.9260,-1.0,30.53,2 
COMPS,ioos:station:USF.COMPS:C10:1,2014-09-14T15:35:00Z,27.1690,-82.9260,-1.0,30.549,2 
COMPS,ioos:station:USF.COMPS:C10:1,2014-09-14T16:05:00Z,27.1690,-82.9260,-1.0,30.554,2 
COMPS,ioos:station:USF.COMPS:C10:1,2014-09-14T16:35:00Z,27.1690,-82.9260,-1.0,30.544,2 
COMPS,ioos:station:USF.COMPS:C10:1,2014-09-14T17:05:00Z,27.1690,-82.9260,-1.0,30.548,2 
COMPS,ioos:station:USF.COMPS:C10:1,2014-09-14T17:35:00Z,27.1690,-82.9260,-1.0,30.527,2 
COMPS,ioos:station:USF.COMPS:C10:1,2014-09-14T18:05:00Z,27.1690,-82.9260,-1.0,30.443,2 
COMPS,ioos:station:USF.COMPS:C10:1,2014-09-14T18:35:00Z,27.1690,-82.9260,-1.0,30.5,2 
COMPS,ioos:station:USF.COMPS:C10:1,2014-09-14T19:05:00Z,27.1690,-82.9260,-1.0,30.536,2 
COMPS,ioos:station:USF.COMPS:C10:1,2014-09-14T19:35:00Z,27.1690,-82.9260,-1.0,30.536,2 
COMPS,ioos:station:USF.COMPS:C10:1,2014-09-14T20:05:00Z,27.1690,-82.9260,-1.0,30.538,2 
COMPS,ioos:station:USF.COMPS:C10:1,2014-09-14T20:35:00Z,27.1690,-82.9260,-1.0,30.549,2 
COMPS,ioos:station:USF.COMPS:C10:1,2014-09-14T21:05:00Z,27.1690,-82.9260,-1.0,30.535,2 
COMPS,ioos:station:USF.COMPS:C10:1,2014-09-14T21:35:00Z,27.1690,-82.9260,-1.0,30.539,2 